• In Russia
  • List of Countries
  • For 7 days
  • Water Temperature
  • Satellite Maps
  • Weather Map
  • Weather Widgets
  • user-avatar
    Login

    Hourly Weather Bruges

    Today, 19 October, Friday

    Time Temperature Precipitation Wind Pressure Humidity
    00:00 +11°C° 0 mm 4 mps 768 mmHg 84%
    01:00 +10°C° 0 mm 4 mps 767 mmHg 86%
    02:00 +10°C° 0 mm 4 mps 767 mmHg 88%
    03:00 +8°C° 0 mm 4 mps 767 mmHg 91%
    04:00 +8°C° 0 mm 4 mps 767 mmHg 91%
    05:00 +9°C° 0 mm 3 mps 767 mmHg 92%
    06:00 +8°C° 0 mm 3 mps 767 mmHg 93%
    07:00 +10°C° 0 mm 3 mps 767 mmHg 88%
    08:00 +11°C° 0 mm 3 mps 768 mmHg 84%
    09:00 +12°C° 0 mm 3 mps 768 mmHg 79%
    10:00 +13°C° 0 mm 3 mps 768 mmHg 75%
    11:00 +14°C° 0 mm 3 mps 768 mmHg 71%
    12:00 +17°C° 0 mm 3 mps 768 mmHg 67%
    13:00 +17°C° 0 mm 3 mps 768 mmHg 67%
    14:00 +17°C° 0 mm 3 mps 767 mmHg 67%
    15:00 +17°C° 0 mm 4 mps 767 mmHg 68%
    16:00 +14°C° 0 mm 4 mps 768 mmHg 72%
    17:00 +13°C° 0 mm 4 mps 768 mmHg 77%
    18:00 +12°C° 0 mm 4 mps 769 mmHg 81%
    19:00 +11°C° 0 mm 3 mps 769 mmHg 82%
    20:00 +11°C° 0 mm 3 mps 769 mmHg 83%
    21:00 +10°C° 0 mm 3 mps 769 mmHg 84%
    22:00 +10°C° 0 mm 3 mps 770 mmHg 85%
    23:00 +10°C° 0 mm 3 mps 770 mmHg 86%

    Tomorrow, 20 October, Saturday

    Time Temperature Precipitation Wind Pressure Humidity
    00:00 +9°C° 0 mm 3 mps 770 mmHg 87%
    01:00 +9°C° 0 mm 2 mps 770 mmHg 88%
    02:00 +9°C° 0 mm 2 mps 770 mmHg 89%
    03:00 +9°C° 0 mm 2 mps 771 mmHg 89%
    04:00 +8°C° 0 mm 2 mps 771 mmHg 90%
    05:00 +8°C° 0 mm 2 mps 771 mmHg 90%
    06:00 +8°C° 0 mm 2 mps 772 mmHg 90%
    07:00 +9°C° 0 mm 2 mps 772 mmHg 85%
    08:00 +10°C° 0 mm 2 mps 772 mmHg 79%
    09:00 +13°C° 0 mm 2 mps 772 mmHg 73%
    10:00 +14°C° 0 mm 2 mps 773 mmHg 67%
    11:00 +15°C° 0 mm 2 mps 773 mmHg 61%
    12:00 +16°C° 0 mm 2 mps 773 mmHg 54%
    13:00 +16°C° 0 mm 2 mps 772 mmHg 54%
    14:00 +16°C° 0 mm 2 mps 772 mmHg 55%
    15:00 +16°C° 0 mm 2 mps 772 mmHg 55%
    16:00 +15°C° 0 mm 2 mps 772 mmHg 60%
    17:00 +13°C° 0 mm 1 mps 772 mmHg 65%
    18:00 +11°C° 0 mm 1 mps 772 mmHg 70%
    19:00 +11°C° 0 mm 1 mps 772 mmHg 71%
    20:00 +11°C° 0 mm 1 mps 772 mmHg 73%
    21:00 +10°C° 0 mm 1 mps 773 mmHg 74%
    22:00 +10°C° 0 mm 1 mps 772 mmHg 75%
    23:00 +9°C° 0 mm 1 mps 772 mmHg 75%

    Day after tomorrow, 21 October, Sunday

    Time Temperature Precipitation Wind Pressure Humidity
    00:00 +9°C° 0 mm 1 mps 772 mmHg 76%
    01:00 +9°C° 0 mm 1 mps 772 mmHg 76%
    02:00 +9°C° 0 mm 1 mps 772 mmHg 76%
    03:00 +8°C° 0 mm 1 mps 771 mmHg 77%
    04:00 +8°C° 0 mm 1 mps 771 mmHg 77%
    05:00 +8°C° 0 mm 1 mps 771 mmHg 77%
    06:00 +8°C° 0 mm 1 mps 771 mmHg 78%
    07:00 +9°C° 0 mm 1 mps 771 mmHg 72%
    08:00 +10°C° 0 mm 2 mps 771 mmHg 66%
    09:00 +12°C° 0 mm 2 mps 771 mmHg 60%
    10:00 +14°C° 0 mm 2 mps 770 mmHg 55%
    11:00 +15°C° 0 mm 2 mps 770 mmHg 51%
    12:00 +16°C° 0 mm 1 mps 770 mmHg 46%
    13:00 +17°C° 0 mm 2 mps 770 mmHg 47%
    14:00 +17°C° 0 mm 2 mps 769 mmHg 48%
    15:00 +17°C° 0 mm 2 mps 769 mmHg 49%
    16:00 +15°C° 0 mm 2 mps 769 mmHg 55%
    17:00 +14°C° 0 mm 2 mps 769 mmHg 60%
    18:00 +11°C° 0 mm 3 mps 769 mmHg 65%
    19:00 +11°C° 0 mm 3 mps 769 mmHg 69%
    20:00 +11°C° 0 mm 3 mps 770 mmHg 72%
    21:00 +11°C° 0 mm 3 mps 770 mmHg 75%
    22:00 +12°C° 0.1 mm 5 mps 770 mmHg 79%
    23:00 +11°C° 0.1 mm 6 mps 770 mmHg 82%

    22 October, Monday

    Time Temperature Precipitation Wind Pressure Humidity
    00:00 +12°C° 0.1 mm 7 mps 770 mmHg 85%
    01:00 +12°C° 0.2 mm 7 mps 771 mmHg 85%
    02:00 +12°C° 0.2 mm 8 mps 771 mmHg 84%
    03:00 +12°C° 0.2 mm 8 mps 771 mmHg 84%
    04:00 +11°C° 0.1 mm 8 mps 772 mmHg 81%
    05:00 +11°C° 0.1 mm 8 mps 772 mmHg 77%
    06:00 +11°C° 0.1 mm 8 mps 773 mmHg 74%
    07:00 +11°C° 0 mm 7 mps 773 mmHg 71%
    08:00 +11°C° 0 mm 7 mps 774 mmHg 68%
    09:00 +11°C° 0 mm 7 mps 774 mmHg 65%
    10:00 +11°C° 0 mm 7 mps 774 mmHg 64%
    11:00 +11°C° 0 mm 6 mps 775 mmHg 63%
    12:00 +11°C° 0 mm 6 mps 775 mmHg 61%
    13:00 +11°C° 0 mm 6 mps 775 mmHg 62%
    14:00 +11°C° 0 mm 6 mps 775 mmHg 62%
    15:00 +11°C° 0 mm 6 mps 775 mmHg 63%
    16:00 +10°C° 0 mm 6 mps 775 mmHg 63%
    17:00 +10°C° 0 mm 6 mps 775 mmHg 64%
    18:00 +10°C° 0 mm 5 mps 775 mmHg 64%
    19:00 +10°C° 0 mm 5 mps 776 mmHg 65%
    20:00 +9°C° 0 mm 5 mps 776 mmHg 66%
    21:00 +9°C° 0 mm 5 mps 776 mmHg 67%
    22:00 +9°C° 0 mm 5 mps 776 mmHg 70%
    23:00 +9°C° 0 mm 5 mps 775 mmHg 72%

    23 October, Tuesday

    Time Temperature Precipitation Wind Pressure Humidity
    00:00 +9°C° 0 mm 5 mps 775 mmHg 75%
    01:00 +9°C° 0.1 mm 6 mps 774 mmHg 76%
    02:00 +9°C° 0.1 mm 6 mps 774 mmHg 78%
    03:00 +10°C° 0.1 mm 6 mps 774 mmHg 80%
    04:00 +10°C° 0.1 mm 6 mps 773 mmHg 81%
    05:00 +10°C° 0.1 mm 7 mps 773 mmHg 81%
    06:00 +10°C° 0.1 mm 7 mps 773 mmHg 82%
    07:00 +11°C° 0 mm 7 mps 773 mmHg 81%
    08:00 +11°C° 0 mm 7 mps 773 mmHg 80%
    09:00 +12°C° 0 mm 7 mps 773 mmHg 79%
    10:00 +13°C° 0.1 mm 6 mps 773 mmHg 79%
    11:00 +13°C° 0.1 mm 6 mps 772 mmHg 78%
    12:00 +13°C° 0.1 mm 6 mps 772 mmHg 77%
    13:00 +13°C° 0.1 mm 6 mps 772 mmHg 77%
    14:00 +13°C° 0.1 mm 6 mps 772 mmHg 76%
    15:00 +13°C° 0.1 mm 6 mps 772 mmHg 75%
    16:00 +12°C° 0 mm 5 mps 772 mmHg 78%
    17:00 +12°C° 0 mm 5 mps 772 mmHg 81%
    18:00 +10°C° 0 mm 5 mps 772 mmHg 84%
    19:00 +10°C° 0 mm 5 mps 772 mmHg 84%
    20:00 +10°C° 0 mm 5 mps 772 mmHg 84%
    21:00 +10°C° 0 mm 5 mps 772 mmHg 84%
    22:00 +10°C° 0 mm 5 mps 772 mmHg 85%
    23:00 +10°C° 0 mm 5 mps 772 mmHg 85%

    24 October, Wednesday

    Time Temperature Precipitation Wind Pressure Humidity
    00:00 +10°C° 0 mm 5 mps 772 mmHg 86%
    01:00 +10°C° 0 mm 5 mps 771 mmHg 88%
    02:00 +10°C° 0 mm 5 mps 771 mmHg 89%
    03:00 +10°C° 0 mm 5 mps 771 mmHg 90%
    04:00 +10°C° 0 mm 5 mps 771 mmHg 91%
    05:00 +10°C° 0 mm 5 mps 771 mmHg 91%
    06:00 +12°C° 0 mm 5 mps 771 mmHg 91%
    07:00 +12°C° 0 mm 5 mps 771 mmHg 88%
    08:00 +13°C° 0 mm 5 mps 771 mmHg 86%
    09:00 +14°C° 0 mm 6 mps 772 mmHg 83%
    10:00 +15°C° 0 mm 5 mps 772 mmHg 83%
    11:00 +15°C° 0 mm 5 mps 772 mmHg 82%
    12:00 +15°C° 0 mm 5 mps 772 mmHg 81%
    13:00 +15°C° 0 mm 5 mps 772 mmHg 82%
    14:00 +15°C° 0 mm 5 mps 772 mmHg 82%
    15:00 +15°C° 0 mm 5 mps 772 mmHg 83%
    16:00 +15°C° 0 mm 5 mps 772 mmHg 84%
    17:00 +14°C° 0 mm 4 mps 772 mmHg 85%
    18:00 +14°C° 0 mm 4 mps 772 mmHg 86%
    19:00 +14°C° 0 mm 4 mps 772 mmHg 87%
    20:00 +14°C° 0 mm 3 mps 772 mmHg 87%
    21:00 +14°C° 0 mm 3 mps 773 mmHg 87%
    22:00 +14°C° 0.1 mm 3 mps 773 mmHg 87%
    23:00 +14°C° 0.1 mm 3 mps 773 mmHg 87%
    Show more